Regional Weather Roundup
Issued by NWS

Home | Current Version | Previous Version | Text Only | Print | Product List | Glossary On
Versions: 1 2 3 4 5 6 7 8 9 10 11 12 13 14 15 16 17 18 19 20 21 22 23 24 25 26 27 28 29 30 31 32 33 34 35 36 37 38 39 40 41 42 43 44 45 46 47 48 49 50
000
ASUS44 KLUB 020510
RWRTX
WEST TEXAS WEATHER ROUNDUP
NATIONAL WEATHER SERVICE LUBBOCK TX
1200 AM CDT MON MAY 02 2016

NOTE: "FAIR" INDICATES FEW OR NO CLOUDS BELOW 12,000 FEET WITH NO
SIGNIFICANT WEATHER AND/OR OBSTRUCTIONS TO VISIBILITY.

TXZ004-006>008-010-012-014-016-OKZ002-020600-
TEXAS PANHANDLE/OKLAHOMA PANHANDLE

CITY           SKY/WX    TMP DP  RH WIND       PRES   REMARKS
AMARILLO       CLOUDY    41  36  82 N10       30.27S
BORGER         CLOUDY    44  39  82 N7        30.27S
CANADIAN       MOCLDY    46  42  88 N5        30.25S
DALHART        PTCLDY    39  35  86 N6        30.29F WCI  35
DUMAS          CLOUDY    39  37  91 NW9       30.27S WCI  33
GUYMON         CLOUDY    43  39  86 NW9       30.26S
HEREFORD       CLEAR     40  38  93 N9G17     30.28S WCI  33
PAMPA          CLOUDY    44  41  88 N10       30.26S
PERRYTON       CLOUDY    45  42  90 NW6       30.25S
$$

TXZ026-029-035-045-048-020600-
SOUTHERN PANHANDLE/SOUTH PLAINS/ROLLING PLAINS

CITY           SKY/WX    TMP DP  RH WIND       PRES   REMARKS
CHILDRESS      CLOUDY    50  40  68 N9        30.23S
SEMINOLE       CLOUDY    47  36  65 N9        30.25S
LUBBOCK        CLOUDY    45  36  70 N12       30.25S
PLAINVIEW      CLOUDY    42  35  79 NE9       30.24R
SNYDER           N/A     50  41  71 N12       30.20F
$$

TXZ052-054-060>062-072-078-127-140-154-169-020600-
PERMIAN BASIN/CONCHO VALLEY/BIG COUNTRY/EDWARDS PLATEAU

CITY           SKY/WX    TMP DP  RH WIND       PRES   REMARKS
ABILENE        CLOUDY    54  47  77 N18       30.16F
BIG SPRING     CLOUDY    50  38  63 N18G26    30.22R
JUNCTION       CLOUDY    66  46  48 NE12      30.05F
MIDLAND        CLOUDY    53  38  56 N21       30.20R
ODESSA         CLOUDY    52  38  58 N17G28    30.21R
SAN ANGELO     CLOUDY    57  44  62 NE13      30.14R
SONORA         MOCLDY    59  45  58 N16       30.12S
SWEETWATER     CLOUDY    52  43  70 N17G23    30.21R
WINK           CLOUDY    50  37  61 N14       30.22R
$$

TXZ055-058-074-075-080-082-020600-
FAR WEST/SOUTHWEST MOUNTAINS/TRANS PECOS

CITY           SKY/WX    TMP DP  RH WIND       PRES   REMARKS
ALPINE         CLOUDY    49  36  60 NE12G18   30.26R
DRYDEN           N/A     59  43  55 N17G24    30.12R
EL PASO        CLEAR     48  34  58 NE13      30.17R
FORT STOCKTON  CLOUDY    56  39  53 NE9       30.19R
GUADALUPE PASS CLOUDY    38  36  92 NE32      30.22R WCI  25
MARFA          CLOUDY    46  35  65 NE24G31   30.19R
PECOS          CLOUDY    54  37  52 N16G23    30.22S
PRESIDIO       CLOUDY    59  37  44 N22G30    30.11R
$$

TXZ014-016-019-021>030-083-020600
TEXAS TECH WEST TEXAS MESONET/TEXAS PANHANDLE/NORTHERN SOUTH PLAINS

CITY           SKY/WX    TMP DP  RH WIND       PRES   REMARKS
ABERNATHY 5ENE   N/A     44  37  78 N10       30.28S
AMARILLO 9NNE    N/A     41  38  89 NW5       30.28S
AMARILLO 7SSE    N/A     40  36  85 N9        30.28S WCI  35
AMHERST 1NE      N/A     42  37  81 N6        30.28R
BOOTLEG 11WNW    N/A     39  36  90 N10       30.30S WCI  32
CANADIAN 6E      N/A     44  40  88 NW8       30.23F
CAPROCK CYN SP   N/A     45  39  80 N6        30.27R
CHILDRESS 2NNE   N/A     48  41  76 NW9       30.24S
CLARENDON 2WSW   N/A     43  39  85 NW10      30.25F
CLAUDE 12SW      N/A     42  38  86 N10       30.26S
DIMMITT 2NE      N/A     40  35  85 N12       30.27S WCI  32
FLOYDADA 2NNE    N/A     43  37  78 N12       30.25S
FRIONA 2NE       N/A     36  34  93 N7        30.29S WCI  30
GOODLETT 3W      N/A     50  41  70 NW12      30.22S
HART 3N          N/A     42  37  80 N13       30.27R
HEREFORD 2NW     N/A     38  35  89 N7        30.30S WCI  33
MCLEAN 1E        N/A     43  40  89 N9        30.23F
MEMPHIS 1NE      N/A     45  39  81 NW5       30.25F
MULESHOE 2SSW    N/A     42  36  80 N9        30.29R
OLTON 6S         N/A     42  36  79 N9        30.28R
PALO DURO SP     N/A     43  37  81 N13       30.28S
PAMPA 2E         N/A     40  38  93 NW10      30.26S WCI  34
PLAINVIEW 1S     N/A     43  37  80 N8        30.27R
SILVERTON 7ESE   N/A     41  36  84 N6        30.25R
TULIA 2ENE       N/A     40  38  93 N9        30.26F WCI  34
TURKEY 2WSW      N/A     44  39  83 NW7       30.27R
UMBARGER 3NNE    N/A     39  37  91 N9        30.28S WCI  33
$$

TXZ033>036-039>041-045>048-020600
TEXAS TECH WEST TEXAS MESONET/SOUTH PLAINS

CITY           SKY/WX    TMP DP  RH WIND       PRES   REMARKS
AIKEN 3WSW       N/A     42  37  80 N12       30.27S
ANDREWS 2NE      N/A     49  36  61 N14G22    30.25S
ANTON 6SSW       N/A     44  37  75 N8        30.28S
BROWNFIELD 2S    N/A     45  35  68 N15G21    30.27R
DENVR CTY 7WNW   N/A     43  35  71 N12       30.27S
GAIL 2ESE        N/A     51  39  62 N13G22    30.21F
LAMESA 2SE       N/A     49  38  66 N15G23    30.24S
LEVELLAND 4S     N/A     44  35  70 N15       30.27F
LUBBOCK 3WNW     N/A     46  35  67 N12       30.28R
MORTON 1ENE      N/A     42  36  77 N7        30.28S
ODONNELL 1N      N/A     47  36  66 N18       30.24F
PLAINS 3N        N/A     44  35  72 N9        30.28S
RALLS 1SE        N/A     46  36  68 N13       30.27S
REESE CENTER     N/A     44  36  72 N13       30.28S
SEAGRAVES 1SW    N/A     46  35  67 N15       30.25F
SEMINOLE 2NNE    N/A     46  35  64 N14       30.26S
SLATON 2NE       N/A     46  36  68 N14       30.26S
SNYDER 3E        N/A     50  41  72 N15G21    30.21S
SUNDOWN 8SW      N/A     44  35  71 N13       30.27S
TAHOKA 3NNE      N/A     46  36  66 N13       30.26S
WOLFFORTH 6SSW   N/A     46  36  68 N15       30.27S
$$

TXZ031-032-036>038-042>044-020600-
TEXAS TECH WEST TEXAS MESONET/ROLLING PLAINS

CITY           SKY/WX    TMP DP  RH WIND       PRES   REMARKS
ASPERMONT 3NE    N/A     52  42  67 N12       30.22S
FLUVANNA 3WNW    N/A     50  38  65 N21G26    30.21F
GRAHAM 5SSW      N/A     48  38  66 N14       30.24S
GUTHRIE 10WSW    N/A     50  39  64 N14G21    30.23S
HASKELL 1NW      N/A     53  44  69 N15       30.20F
JAYTON 1SSE      N/A     52  40  64 N13       30.22F
KNOX CITY 3NW    N/A     53  42  64 N10       30.23R
LK A HENRY 1NW   N/A     51  38  62 N12       30.24S
NORTHFIELD 1S    N/A     48  41  75 NW9       30.26R
ODELL 4ENE       N/A     52  44  72 N9        30.22S
PADUCAH 10SW     N/A     49  40  70 N15       30.24S
POST 1NE         N/A     49  37  63 N12       30.24S
RRING SPRGS 3N   N/A     46  39  75 N15G22    30.25S
SEYMOUR 3NW      N/A     53  47  78 N10       30.20F
SPUR 1W          N/A     49  38  66 N14       30.24S
WEINERT 2NNE     N/A     52  46  79 N9        30.21S
WHITE RVR 6NE    N/A     47  37  67 N16       30.24F
$$

TXZ052-054-060>062-072-078-127-140-154-169-020600-
TEXAS TECH WEST TEXAS MESONET/PERMIAN BASIN/
CONCHO VALLEY/BIG COUNTRY/EDWARDS PLATEAU

CITY           SKY/WX    TMP DP  RH WIND       PRES   REMARKS
COYANOSA 2N      N/A     57  37  48 N14       30.22R
JUNCTION 1SSW    N/A     65  49  55 N7        30.07S
MERTZON 3NNE     N/A     56  44  64 N15       30.16S
SAN ANGELO 7NW   N/A     56  42  58 N12G21    30.15R
STRLNG CT 4WSW   N/A     52  44  76 N7        30.18S
ST LAWRNCE 5SW   N/A     54  41  61 N16       30.18S
SWEETWATR 11SW   N/A     52  44  73 N14G21    30.19S
WALL 1E          N/A     56  44  63 N17G24    30.16R
$$

TXZ055-058-074-075-080-082-020600-
TEXAS TECH WEST TEXAS MESONET/FAR WEST/SOUTHWEST MOUNTAINS/TRANS PECOS

CITY           SKY/WX    TMP DP  RH WIND       PRES   REMARKS
PRSMN GAP BBNP   N/A     57  41  54 NE17      30.14R
GUADLPE MTN NP   N/A     37  35  93 NE13      30.26S WCI  29
$$



USA.gov is the U.S. government's official web portal to all federal, state and local government web resources and services.